This demonstration page uses our WeatherBlox Daily Observations layout. Learn more.

Left ArrowRight Arrow

Hourly Observations for June 15, 2021

Temp ( °F °C ) Dew Point ( °F °C ) Humidity (%) Winds ( mph kmh ) Pressure ( in mb ) Visibility ( mi km ) Precip ( " mm )
12:53 am 00:53 Clear 75 23.9 72 22.2 90 90 Calm 29.89 1012 10 16 0.00 0.00
1:53 am 01:53 Clear 73 22.8 71 21.7 94 94 Calm 29.88 1012 10 16 0.00 0.00
2:53 am 02:53 Clear 75 23.9 71 21.7 88 88 Calm 29.87 1011 10 16 0.00 0.00
3:53 am 03:53 Clear 72 22.2 69 20.6 91 91 Calm 29.86 1011 10 16 0.00 0.00
4:53 am 04:53 Clear 72 22.2 68 20 87 87 Calm 29.86 1011 10 16 0.00 0.00
5:53 am 05:53 Clear 72 22.2 65 18.3 79 79 Calm 29.87 1012 10 16 0.00 0.00
6:53 am 06:53 Sunny 72 22.2 65 18.3 79 79 NNW 3 6 29.88 1012 10 16 0.00 0.00
7:53 am 07:53 Sunny 75 23.9 65 18.3 71 71 Calm 29.89 1012 10 16 0.00 0.00
8:53 am 08:53 Sunny 78 25.6 66 18.9 67 67 W 3 6 29.91 1013 10 16 0.00 0.00
9:53 am 09:53 Mostly Sunny 81 27.2 66 18.9 61 61 NW 9 15 29.91 1013 10 16 0.00 0.00
10:53 am 10:53 Sunny 83 28.3 65 18.3 55 55 NW 10 17 29.91 1013 10 16 0.00 0.00
11:53 am 11:53 Sunny 86 30 58 14.4 39 39 N 13 20 29.91 1013 10 16 0.00 0.00
12:53 pm 12:53 Sunny 87 30.6 56 13.3 35 35 WNW 16 26 29.91 1013 10 16 0.00 0.00
1:53 pm 13:53 Sunny 87 30.6 59 15 39 39 NNW 10 17 29.90 1013 10 16 0.00 0.00
2:53 pm 14:53 Sunny 87 30.6 57 13.9 36 36 NW 15 24 29.90 1012 10 16 0.00 0.00
3:53 pm 15:53 Sunny 87 30.6 52 11.1 30 30 NNW 15 24 29.88 1012 10 16 0.00 0.00
4:53 pm 16:53 Sunny 88 31.1 49 9.4 26 26 NNW 14 22 29.88 1012 10 16 0.00 0.00
6:53 pm 18:53 Sunny 85 29.4 50 10 30 30 NNW 8 13 29.88 1012 10 16 0.00 0.00
7:53 pm 19:53 Sunny 83 28.3 52 11.1 34 34 N 6 9 29.89 1012 10 16 0.00 0.00
8:53 pm 20:53 Clear 78 25.6 52 11.1 40 40 N 3 6 29.91 1013 10 16 0.00 0.00
9:53 pm 21:53 Clear 75 23.9 53 11.7 46 46 NNW 6 9 29.92 1013 10 16 0.00 0.00
10:53 pm 22:53 Clear 74 23.3 53 11.7 48 48 VRB 3 6 29.93 1014 10 16 0.00 0.00
11:53 pm 23:53 Clear 73 22.8 54 12.2 51 51 Calm 29.95 1014 10 16 0.00 0.00

Powered by AerisWeather